THOR ABLESTAR DEB, 5715

Orbit data source: Space-Track

THOR ABLESTAR DEB, 5715 is space debris in LEO originally from a launch on Thu, 29 Jun 1961 UTC launched from the Air Force Eastern Test Range (AFETR). Debris objects in space refer to the collection of defunct objects orbiting the Earth. Examples of debris include non-operational satellites, rocket bodies, and fragments generated from explosions, collisions, or faulty payload assembly.

Loading next visibility...
Identifier
5715, 1961-015JS
Orbit
LEO
Country
Flag of USUS
Related business
Manufacturer
Unknown
Mission
Spacecraft
Bus & Motor
Unknown
Mass
Unknown
Launch date (UTC)
1961-06-29 (65 years ago)
Launch vehicle
Unknown
Launch site
Air Force Eastern Test Range (AFETR)
Object type
Payload
Rocket body
Debris
Shape & HBR
Unknown shape, 0.1 m
Radar Cross Section
Small (<0.1 m²)

Expand to show TLE details & history
Last TLE update: 21 hours ago

TLE from 21 hours ago
0 THOR ABLESTAR DEB
1 05715U 61015JS  26125.62882356  .00000184  00000-0  29737-3 0  9991
2 05715  66.5634 197.8166 0147991  85.9277  64.5903 13.64292313195924
Epoch: 2026-05-05T15:05Z
TLE epoch observation values (Epoch: 2026-05-05T15:05:30.355Z)
Latitude
25.50481°
Longitude
-83.93338°
Altitude
976.705 km
Speed
7.389 km/s
True Right ascension
00h 23m 46s
True Declination
25° 22' 31"
Sunlit
Object was in daylight at epoch
Visualization orbit readout
Latitude
Unknown
Longitude
Unknown
Altitude
Unknown
Speed
Unknown
Apparent Right ascension
Unknown
Apparent Declination
Unknown
Sunlit
N/A
Visualization observer readout
Local Sidereal Time
19:35:28
Azimuth
Unknown
Elevation
Unknown
Doppler factor
Unknown
Orbital elements
Apogee altitude
1,128.039 km
Perigee altitude
909.109 km
Semi-major axis
7,396.711 km
Eccentricity
0.0148
Inclination
66.5634°
RAAN
197.8166°
Arg. of periapsis
85.9277°
True anomaly
66.13416°
Mean anomaly
64.5903°
Eccentric anomaly
65.36102°
Mean motion
3.41181 °/min
Orbital period
105.52 mins
BSTAR
0.00029737
Loading maneuver chart data...
Computing Atmospheric mass density...
Loading historical data...
Loading historical data...
Loading historical data...
Loading historical data...
Loading historical data...
Loading historical data...
Loading historical data...

Documentation

Showing up to 5 results
|